Location: Maignaut
(43.8886°N, 0.4051°E)
Time: 23:19:50
(UTC+00:00)

Okean 3 - Pass Details

Date: 27 February 2020
Orbit: 575 x 602 km, 82.5° (Epoch: 05 April)

Event Time Altitude Azimuth Distance (km) Brightness Sun altitude
Rises 19:26:45 0° 355° (N) 2,821 7.1 -19.3°
Reaches altitude 10° 19:29:00 10° 359° (N) 1,912 6.2 -19.7°
Maximum altitude 19:33:10 60° 79° (E) 666 3.4 -20.5°
Enters shadow 19:33:28 58° 102° (ESE) 677 3.4 -20.5°
